AA0FC Weather Reports


Display with metric or nautical units.
time (UTC)temp
F
wind
direction
speed
MPH
gust
MPH
rain 1hr
in
rain 24hr
in
rain mn
in
humidity
%
barometer
mb
20260504194514 73 20 5.0 16.0 0.00 0.00 0.00 23 1008.3
20260504194246 75 220 3.0 7.0 0.00 0.00 0.00 19 1008.2
20260504193515 76 20 2.0 13.0 0.00 0.00 0.00 18 1007.9
20260504193015 77 331 2.0 13.0 0.00 0.00 0.00 17 1007.7
20260504192515 77 320 4.0 13.0 0.00 0.00 0.00 17 1007.7
20260504192014 77 268 4.0 13.0 0.00 0.00 0.00 17 1007.6
20260504191516 76 232 4.0 9.0 0.00 0.00 0.00 19 1007.5
20260504191015 75 20 3.0 7.0 0.00 0.00 0.00 17 1007.6
20260504190512 75 20 3.0 8.0 0.00 0.00 0.00 19 1007.7
20260504190244 75 55 3.0 8.0 0.00 0.00 0.00 20 1007.6
20260504185513 75 7 4.0 8.0 0.00 0.00 0.00 20 1007.6
20260504185013 74 314 4.0 8.0 0.00 0.00 0.00 20 1007.7
20260504184513 74 14 5.0 10.0 0.00 0.00 0.00 20 1007.6
20260504184244 75 44 6.0 11.0 0.00 0.00 0.00 20 1007.7
20260504183513 75 297 6.0 13.0 0.00 0.00 0.00 20 1007.8
20260504183013 75 307 7.0 20.0 0.00 0.00 0.00 20 1007.9
20260504182511 75 20 7.0 20.0 0.00 0.00 0.00 20 1007.9
20260504182008 75 290 8.0 15.0 0.00 0.00 0.00 21 1007.9
20260504181509 74 20 8.0 15.0 0.00 0.00 0.00 21 1008.1
20260504181006 74 8 7.0 14.0 0.00 0.00 0.00 23 1008.2
20260504180739 74 291 7.0 16.0 0.00 0.00 0.00 22 1008.2
20260504180001 74 294 6.0 18.0 0.00 0.00 0.00 23 1008.2
20260504175501 73 320 6.0 18.0 0.00 0.00 0.00 24 1008.4
20260504175232 73 328 6.0 13.0 0.00 0.00 0.00 25 1008.4
20260504174500 72 302 7.0 19.0 0.00 0.00 0.00 24 1008.5
20260504173959 71 280 8.0 19.0 0.00 0.00 0.00 25 1008.8
20260504173458 71 268 8.0 16.0 0.00 0.00 0.00 25 1009.0
20260504172959 71 331 7.0 22.0 0.00 0.00 0.00 25 1009.1
20260504172459 71 7 6.0 22.0 0.00 0.00 0.00 25 1009.1
20260504171958 71 2 6.0 13.0 0.00 0.00 0.00 25 1009.2
20260504171457 71 254 7.0 14.0 0.00 0.00 0.00 26 1009.3
20260504170957 71 308 6.0 14.0 0.00 0.00 0.00 26 1009.3
20260504170428 70 299 5.0 14.0 0.00 0.00 0.00 27 1009.3
20260504160419 64 20 3.0 11.0 0.00 0.00 0.00 30 1009.5
20260504160148 64 20 3.0 11.0 0.00 0.00 0.00 30 1009.5
20260504150913 60 20 2.0 5.0 0.00 0.00 0.00 35 1009.7
20260504150416 60 20 2.0 6.0 0.00 0.00 0.00 35 1009.7
20260504150412 59 20 1.0 6.0 0.00 0.00 0.00 36 1009.7
20260504140856 51 316 0.0 1.0 0.00 0.00 0.00 49 1009.9
20260504140357 51 20 0.0 0.0 0.00 0.00 0.00 51 1010.0
20260504130339 45 242 1.0 6.0 0.00 0.00 0.00 60 1009.5
20260504110254 40 299 0.0 1.0 0.00 0.00 0.00 57 1009.7
20260504100244 41 299 0.0 1.0 0.00 0.00 0.00 58 1009.9
20260504081648 46 299 0.0 0.0 0.00 0.00 0.00 49 1010.4
20260504081146 46 299 0.0 0.0 0.00 0.00 0.00 48 1010.4
20260504080646 47 299 0.0 1.0 0.00 0.00 0.00 48 1010.5
20260504080144 47 299 0.0 1.0 0.00 0.00 0.00 48 1010.5
20260504070134 52 300 1.0 5.0 0.00 0.00 0.00 41 1011.1
20260504060121 57 320 3.0 7.0 0.00 0.00 0.00 34 1011.0
20260504050618 60 324 3.0 11.0 0.00 0.00 0.00 31 1011.0
20260504050111 61 20 1.0 4.0 0.00 0.00 0.00 29 1010.6
20260504045612 61 267 1.0 4.0 0.00 0.00 0.00 28 1010.6
20260504045110 61 254 1.0 4.0 0.00 0.00 0.00 28 1010.7
20260504044610 62 265 1.0 7.0 0.00 0.00 0.00 28 1010.6
20260504044107 62 276 1.0 7.0 0.00 0.00 0.00 28 1010.6
20260504043838 62 257 2.0 6.0 0.00 0.00 0.00 27 1010.9
20260504043106 62 244 2.0 6.0 0.00 0.00 0.00 27 1010.9
20260504042606 63 287 2.0 6.0 0.00 0.00 0.00 27 1010.9
20260504042103 63 289 2.0 5.0 0.00 0.00 0.00 27 1010.9
20260504041604 63 289 2.0 7.0 0.00 0.00 0.00 27 1011.1
20260504041102 63 212 2.0 7.0 0.00 0.00 0.00 26 1011.0
20260504040601 64 239 2.0 8.0 0.00 0.00 0.00 26 1011.1
20260504040100 64 231 2.0 8.0 0.00 0.00 0.00 26 1011.0
20260504035559 64 233 2.0 8.0 0.00 0.00 0.00 26 1011.1
20260504035328 64 216 3.0 7.0 0.00 0.00 0.00 26 1011.1
20260504034828 64 230 3.0 8.0 0.00 0.00 0.00 26 1011.1
20260504034056 64 257 3.0 9.0 0.00 0.00 0.00 26 1011.2
20260504033555 64 220 2.0 9.0 0.00 0.00 0.00 26 1011.2
20260504033054 64 261 2.0 8.0 0.00 0.00 0.00 26 1011.2
20260504032553 64 263 3.0 7.0 0.00 0.00 0.00 26 1011.3
20260504032323 65 316 2.0 10.0 0.00 0.00 0.00 25 1011.3
20260504031547 65 267 2.0 10.0 0.00 0.00 0.00 25 1011.2
20260504031046 65 247 3.0 7.0 0.00 0.00 0.00 25 1011.1
20260504030545 65 218 3.0 7.0 0.00 0.00 0.00 25 1011.2
20260504030044 65 214 3.0 7.0 0.00 0.00 0.00 25 1011.2
20260504025544 65 246 4.0 9.0 0.00 0.00 0.00 25 1011.2
20260504025046 65 187 3.0 9.0 0.00 0.00 0.00 25 1011.1
20260504025042 65 239 3.0 9.0 0.00 0.00 0.00 25 1011.1
20260504024039 64 243 4.0 10.0 0.00 0.00 0.00 25 1011.0
20260504023540 64 234 4.0 10.0 0.00 0.00 0.00 25 1011.1
20260504023304 64 232 4.0 7.0 0.00 0.00 0.00 25 1011.0
20260504022533 64 226 3.0 7.0 0.00 0.00 0.00 25 1011.1
20260504022304 64 222 2.0 5.0 0.00 0.00 0.00 25 1011.1
20260504021529 65 226 1.0 4.0 0.00 0.00 0.00 25 1011.1
20260504021027 65 245 1.0 4.0 0.00 0.00 0.00 25 1011.1
20260504020528 65 262 1.0 5.0 0.00 0.00 0.00 25 1010.9
20260504020027 66 263 1.0 5.0 0.00 0.00 0.00 25 1010.9
20260504015528 66 305 0.0 4.0 0.00 0.00 0.00 25 1010.9
20260504015025 67 309 0.0 4.0 0.00 0.00 0.00 24 1011.0
20260504014526 67 309 1.0 4.0 0.00 0.00 0.00 24 1010.9
20260504014026 67 310 1.0 4.0 0.00 0.00 0.00 23 1011.0
20260504013523 67 290 1.0 5.0 0.00 0.00 0.00 23 1010.9
20260504013023 67 290 2.0 7.0 0.00 0.00 0.00 23 1010.9
20260504012522 68 328 2.0 8.0 0.00 0.00 0.00 23 1010.9
20260504012022 68 249 3.0 10.0 0.00 0.00 0.00 23 1010.9
20260504011518 68 52 3.0 10.0 0.00 0.00 0.00 23 1010.9
20260504011015 68 295 2.0 8.0 0.00 0.00 0.00 24 1011.0
20260504010515 68 304 2.0 8.0 0.00 0.00 0.00 24 1010.9
20260504010015 68 274 3.0 6.0 0.00 0.00 0.00 24 1011.1
20260504005514 68 307 3.0 6.0 0.00 0.00 0.00 24 1011.1
20260504005014 68 15 2.0 6.0 0.00 0.00 0.00 23 1011.0
20260504004514 68 335 1.0 5.0 0.00 0.00 0.00 24 1011.2
20260504004013 68 282 1.0 7.0 0.00 0.00 0.00 24 1011.4
20260504003513 68 269 1.0 7.0 0.00 0.00 0.00 23 1011.4
20260504003013 69 320 2.0 7.0 0.00 0.00 0.00 24 1011.4
20260504002511 69 321 1.0 7.0 0.00 0.00 0.00 23 1011.3
20260504002011 69 284 2.0 5.0 0.00 0.00 0.00 22 1011.4
20260504001510 69 291 2.0 7.0 0.00 0.00 0.00 23 1011.4
20260504001240 69 12 2.0 7.0 0.00 0.00 0.00 24 1011.3
20260504000738 69 154 1.0 4.0 0.00 0.00 0.00 23 1011.6
20260504000005 69 304 3.0 8.0 0.00 0.00 0.00 24 1011.8
20260503235732 69 8 5.0 11.0 0.00 0.00 0.00 23 1011.8
20260503234959 69 335 4.0 11.0 0.00 0.00 0.00 22 1011.9
20260503234457 70 315 2.0 7.0 0.00 0.00 0.00 22 1011.9
20260503233957 70 242 2.0 7.0 0.00 0.00 0.00 22 1011.7
20260503233456 71 292 2.0 6.0 0.00 0.00 0.00 22 1011.4
20260503232926 71 272 3.0 9.0 0.00 0.00 0.00 21 1011.4
20260503232426 71 234 3.0 9.0 0.00 0.00 0.00 22 1011.4
20260503231927 71 217 3.0 15.0 0.00 0.00 0.00 22 1011.3
20260503231425 71 220 5.0 15.0 0.00 0.00 0.00 22 1011.3
20260503230926 71 256 8.0 16.0 0.00 0.00 0.00 22 1011.4
20260503230426 71 195 8.0 22.0 0.00 0.00 0.00 22 1011.6
20260503230156 71 230 6.0 22.0 0.00 0.00 0.00 22 1011.6
20260503225657 71 275 5.0 14.0 0.00 0.00 0.00 20 1011.7
20260503224925 71 318 4.0 9.0 0.00 0.00 0.00 20 1011.4
20260503224419 71 284 4.0 9.0 0.00 0.00 0.00 20 1011.6
20260503224148 72 317 2.0 6.0 0.00 0.00 0.00 19 1011.4
20260503223417 72 3 2.0 7.0 0.00 0.00 0.00 18 1011.3
20260503222917 72 10 2.0 7.0 0.00 0.00 0.00 17 1011.3
20260503222416 72 282 2.0 5.0 0.00 0.00 0.00 18 1011.6
20260503221916 72 325 3.0 7.0 0.00 0.00 0.00 19 1011.6
20260503221413 72 16 4.0 10.0 0.00 0.00 0.00 20 1011.4
20260503220913 72 20 6.0 10.0 0.00 0.00 0.00 18 1011.6
20260503220411 73 30 7.0 18.0 0.00 0.00 0.00 17 1011.4
20260503215911 73 288 6.0 18.0 0.00 0.00 0.00 16 1011.7
20260503215411 74 266 4.0 15.0 0.00 0.00 0.00 16 1011.6
20260503214909 74 284 4.0 10.0 0.00 0.00 0.00 16 1011.6
20260503214408 74 222 4.0 10.0 0.00 0.00 0.00 16 1011.6
20260503213909 75 216 5.0 10.0 0.00 0.00 0.00 15 1011.6
20260503213409 75 212 5.0 11.0 0.00 0.00 0.00 16 1011.7
20260503212909 74 198 6.0 11.0 0.00 0.00 0.00 15 1011.8
20260503212407 74 204 7.0 13.0 0.00 0.00 0.00 16 1011.9
20260503211907 74 237 7.0 15.0 0.00 0.00 0.00 16 1011.9
20260503211637 75 214 5.0 15.0 0.00 0.00 0.00 16 1012.0
20260503210907 76 220 4.0 12.0 0.00 0.00 0.00 16 1012.0
20260503210638 76 218 4.0 11.0 0.00 0.00 0.00 15 1012.3
20260503205907 76 6 5.0 13.0 0.00 0.00 0.00 14 1012.0
20260503205405 78 20 5.0 13.0 0.00 0.00 0.00 13 1012.0
20260503204905 77 309 3.0 8.0 0.00 0.00 0.00 14 1012.0
20260503204403 76 20 4.0 10.0 0.00 0.00 0.00 15 1012.3
20260503203857 76 6 5.0 10.0 0.00 0.00 0.00 15 1012.4
20260503203357 75 324 4.0 8.0 0.00 0.00 0.00 15 1012.4
20260503202857 74 0 4.0 9.0 0.00 0.00 0.00 16 1012.6
20260503202354 74 35 4.0 9.0 0.00 0.00 0.00 16 1012.7
20260503201855 74 29 5.0 10.0 0.00 0.00 0.00 16 1012.9
20260503201354 74 18 5.0 10.0 0.00 0.00 0.00 16 1013.0
20260503200854 74 9 3.0 8.0 0.00 0.00 0.00 16 1013.0
20260503200355 74 331 4.0 10.0 0.00 0.00 0.00 16 1013.1
20260503200126 74 305 4.0 10.0 0.00 0.00 0.00 15 1013.1
20260503195353 74 317 3.0 9.0 0.00 0.00 0.00 16 1013.1
20260503194853 74 293 5.0 9.0 0.00 0.00 0.00 15 1013.1